This is the latest recevied weather packets stored in our database for station/object EB1BCG-1. If no packets are shown the sender has not sent any weather packets the latest 10 day(s).
| Time | Temp. | Humidity | Pressure | Rain* | Wind** | Luminosity | Snow |
|---|---|---|---|---|---|---|---|
| 1777582370 | 11.67° C | 92% | 1018 hPa | 0 mm | 0 m/s | - | - |
| 1777581763 | 11.67° C | 92% | 1017.8 hPa | 0 mm | 0 m/s | - | - |
| 1777581159 | 12.22° C | 86% | 1017.7 hPa | 0 mm | 0 m/s | - | - |
| 1777580549 | 12.22° C | 78% | 1017.5 hPa | 0 mm | 0 m/s | - | - |
| 1777579942 | 11.67° C | 78% | 1017.4 hPa | 0 mm | 0 m/s | - | - |
| 1777579339 | 11.67° C | 74% | 1017.2 hPa | 0 mm | 0 m/s | - | - |
| 1777578729 | 11.67° C | 71% | 1017 hPa | 0 mm | 0 m/s | - | - |
| 1777578124 | 12.22° C | 67% | 1016.9 hPa | 0 mm | 0 m/s | - | - |
| 1777577519 | 12.78° C | 62% | 1016.7 hPa | 0 mm | 0 m/s | - | - |
| 1777576910 | 13.33° C | 59% | 1016.6 hPa | 0 mm | 0 m/s | - | - |
| 1777576303 | 13.89° C | 58% | 1016.5 hPa | 0 mm | 0 m/s | - | - |
| 1777575089 | 14.44° C | 56% | 1016.4 hPa | 0 mm | 0 m/s | - | - |
| 1777574481 | 14.44° C | 53% | 1016.3 hPa | 0 mm | 0 m/s | - | - |
| 1777573879 | 15° C | 52% | 1016.2 hPa | 0 mm | 0 m/s | - | - |
| 1777573268 | 16.11° C | 50% | 1016.1 hPa | 0 mm | 0 m/s | - | - |
| 1777572662 | 16.11° C | 50% | 1016 hPa | 0 mm | 0 m/s | - | - |
| 1777572062 | 16.67° C | 50% | 1016 hPa | 0 mm | 0 m/s | - | - |
| 1777571448 | 17.22° C | 49% | 1015.9 hPa | 0 mm | 0 m/s | - | - |
| 1777570842 | 17.22° C | 49% | 1015.9 hPa | 0 mm | 0 m/s | - | - |
| 1777570239 | 17.78° C | 51% | 1015.9 hPa | 0 mm | 0 m/s | - | - |
| 1777569629 | 17.78° C | 49% | 1016 hPa | 0 mm | 0 m/s | - | - |
| 1777569023 | 18.33° C | 48% | 1015.9 hPa | 0 mm | 0 m/s | - | - |
| 1777568419 | 18.89° C | 48% | 1015.8 hPa | 0 mm | 0 m/s | - | - |
| 1777567810 | 18.89° C | 47% | 1015.8 hPa | 0 mm | 0 m/s | - | - |
| 1777566599 | 21.67° C | 47% | 1015.6 hPa | 0 mm | 0 m/s | - | - |
* Rain latest hour (hover to see other rain measurements)
** Current wind speed in m/s (hover to see current wind gust speed)